This demonstration page uses our WeatherBlox Daily Observations layout. Learn more.

Left ArrowRight Arrow

Hourly Observations for April 13, 2018

Temp ( °F °C ) Dew Point ( °F °C ) Humidity (%) Winds ( mph kmh ) Pressure ( in mb ) Visibility ( mi km ) Precip ( " mm )
12:53 am 00:53 Clear 53 11.7 42 5.6 66 66 ENE 23 37 29.27 991 10 16 0.00 0.00
1:53 am 01:53 Clear 51 10.6 42 5.6 71 71 N 12 19 29.31 993 10 16 0.00 0.00
2:53 am 02:53 Clear 49 9.4 42 5.6 77 77 NE 21 33 29.26 991 10 16 0.00 0.00
3:53 am 03:53 Clear 48 8.9 42 5.6 80 80 NE 16 26 29.25 990 10 16 0.00 0.00
4:53 am 04:53 Clear 47 8.3 42 5.6 83 83 NNE 14 22 29.26 991 10 16 0.00 0.00
5:53 am 05:53 Mostly Cloudy 47 8.3 43 6.1 86 86 N 17 28 29.26 991 9 14 0.00 0.00
6:53 am 06:53 Cloudy 47 8.3 43 6.1 86 86 N 25 41 29.30 992 9 14 0.00 0.00
7:53 am 07:53 Cloudy 47 8.3 42 5.6 83 83 N 22 35 29.31 993 8 13 0.00 0.00
8:20 am 08:20 Cloudy 45 7 41 5 87 87 N 23 37 29.38 995 8 13 0.00 0.00
8:53 am 08:53 Cloudy 44 6.7 40 4.4 85 85 N 24 39 29.34 993 8 13 0.00 0.00
9:33 am 09:33 Cloudy 44 6.7 40 4.4 85 85 N 25 41 29.38 995 7 11 0.00 0.00
9:53 am 09:53 Cloudy with Mist and Fog 43 6.1 40 4.4 89 89 N 22 35 29.36 994 6 10 0.00 0.00
10:53 am 10:53 Cloudy with Mist and Fog 43 6.1 41 5 93 93 NNE 17 28 29.37 995 6 10 0.00 0.00
11:53 am 11:53 Cloudy with Mist and Fog 44 6.7 42 5.6 93 93 NNE 21 33 29.38 995 5 8 0.00 0.00
12:53 pm 12:53 Cloudy with Mist and Fog 44 6.7 42 5.6 93 93 NNE 18 30 29.39 995 4 6 0.00 0.00
1:53 pm 13:53 Cloudy with Mist and Fog 44 6.7 42 5.6 93 93 N 18 30 29.39 995 3 5 0.00 0.00
2:03 pm 14:03 Cloudy with Mist and Fog 43 6.1 42 5.6 97 97 N 21 33 29.41 996 3 5 0.00 0.00
2:53 pm 14:53 Cloudy with Mist and Fog 42 5.6 41 5 96 96 NNW 20 31 29.42 996 5 8 0.00 0.00
3:26 pm 15:26 Cloudy with Light Rain 41 5 40 4.4 96 96 NNW 20 31 29.47 998 3 4 0.00 0.03
3:53 pm 15:53 Cloudy with Light Rain 41 5 40 4.4 96 96 N 18 30 29.44 997 2 3 0.00 0.03
4:10 pm 16:10 Cloudy with Light Rain 41 5 40 4.4 96 96 N 20 31 29.47 998 2 3 0.00 0.03
4:53 pm 16:53 Cloudy with Light Rain 40 4.4 40 4.4 100 100 NNW 20 31 29.48 998 2 3 0.00 0.03
5:14 pm 17:14 Cloudy with Light Rain 39 4 39 4 100 100 NNW 24 39 29.53 1000 2 3 0.00 0.00
5:34 pm 17:34 Cloudy with Light Rain 39 4 37 3 93 93 N 23 37 29.53 1000 4 6 0.00 0.00
5:53 pm 17:53 Cloudy 39 3.9 38 3.3 96 96 N 23 37 29.50 999 7 11 0.01 0.25
6:07 pm 18:07 Cloudy 39 3.9 38 3.3 96 96 N 23 37 29.56 1001 9 14 0.00 0.00
6:32 pm 18:32 Cloudy 39 4 37 3 93 93 N 20 31 29.56 1001 8 13 0.00 0.00
6:53 pm 18:53 Cloudy with Mist and Fog 38 3.3 38 3.3 100 100 NNW 17 28 29.55 1001 5 8 0.00 0.00
7:22 pm 19:22 Cloudy with Light Snow 37 3 37 3 100 100 N 17 28 29.59 1002 3 4 0.00 0.00
7:53 pm 19:53 Cloudy with Light Snow 37 2.8 37 2.8 100 100 NNW 18 30 29.59 1002 3 5 0.00 0.03
8:33 pm 20:33 Windy with Snow Likely 34 1 34 1 100 100 NNW 21 33 29.65 1004 3 4 0.00 0.00
8:49 pm 20:49 Windy with Snow Likely 34 1 34 1 100 100 NNW 25 41 29.65 1004 3 5 0.01 0.25
8:53 pm 20:53 Windy with Snow Likely 34 1.1 33 0.6 97 97 NNW 23 37 29.60 1002 3 5 0.01 0.25
9:21 pm 21:21 Windy with Snow Likely 33 0.6 33 0.6 100 100 NNW 26 43 29.68 1005 3 5 0.00 0.03
9:32 pm 21:32 Windy with Snow Likely 34 1 34 1 100 100 NNW 25 41 29.68 1005 3 5 0.00 0.00
9:53 pm 21:53 Windy with Snow Likely 33 0.6 32 0 96 96 NNW 29 46 29.63 1004 3 5 0.00 0.03
10:43 pm 22:43 Windy with Snow Likely 34 1 32 0 93 93 NNW 30 48 29.71 1006 3 5 0.00 0.00
10:53 pm 22:53 Windy with Snow Likely 32 0 32 0 100 100 NNW 31 50 29.64 1004 3 5 0.00 0.03
11:08 pm 23:08 Windy with Snow Likely 32 0 31 -0.6 96 96 NNW 25 41 29.71 1006 3 4 0.01 0.25
11:34 pm 23:34 Windy with Snow Likely 32 0 31 -0.6 96 96 NNW 28 44 29.71 1006 2 3 0.01 0.25
11:53 pm 23:53 Windy with Snow Likely 31 -0.6 30 -1.1 96 96 NNW 30 48 29.65 1004 3 4 0.01 0.25

Powered by AerisWeather